Time,TemperatureF,DewpointF,PressureIn,WindDirection,WindDirectionDegrees,WindSpeedMPH,WindSpeedGustMPH,Humidity,HourlyPrecipIn,Conditions,Clouds,dailyrainin,SoftwareType,DateUTC
2013-03-17 00:03:00,29.0,27.0,-100.00,NW,305,6.0,7.0,94,0.00,,,-99.99,,2013-03-17 04:03:00,
2013-03-17 00:13:00,29.0,27.0,-100.00,West,275,6.0,7.0,94,0.00,,,-99.99,,2013-03-17 04:13:00,
2013-03-17 00:23:00,28.0,27.0,-100.00,WSW,255,6.0,9.0,94,0.00,,,-99.99,,2013-03-17 04:23:00,
2013-03-17 00:33:00,28.0,27.0,-100.00,WNW,290,4.0,6.0,94,0.00,,,-99.99,,2013-03-17 04:33:00,
2013-03-17 00:43:00,28.0,27.0,-100.00,NW,305,6.0,9.0,94,0.00,,,-99.99,,2013-03-17 04:43:00,
2013-03-17 00:53:00,28.0,27.0,-100.00,NW,315,6.0,11.0,93,0.00,,,-99.99,,2013-03-17 04:53:00,
2013-03-17 01:03:00,28.0,27.0,-100.00,NW,305,6.0,11.0,93,0.00,,,-99.99,,2013-03-17 05:03:00,
2013-03-17 01:12:00,28.0,27.0,-100.00,NW,305,4.0,9.0,93,0.00,,,-99.99,,2013-03-17 05:12:00,
2013-03-17 01:22:00,28.0,27.0,-100.00,NW,310,3.0,6.0,93,0.00,,,-99.99,,2013-03-17 05:22:00,
2013-03-17 01:32:00,28.0,27.0,-100.00,NNW,330,2.0,5.0,93,0.00,,,-99.99,,2013-03-17 05:32:00,
2013-03-17 01:42:00,28.0,27.0,-100.00,NW,320,2.0,4.0,93,0.00,,,-99.99,,2013-03-17 05:42:00,
2013-03-17 01:52:00,29.0,27.0,-100.00,NW,320,1.0,4.0,93,0.00,,,-99.99,,2013-03-17 05:52:00,
2013-03-17 02:02:00,28.0,27.0,-100.00,NW,325,2.0,4.0,93,0.00,,,-99.99,,2013-03-17 06:02:00,
2013-03-17 02:12:00,29.0,27.0,-100.00,NW,310,1.0,4.0,93,0.00,,,-99.99,,2013-03-17 06:12:00,
2013-03-17 02:22:00,29.0,27.0,-100.00,NW,320,1.0,4.0,93,0.00,,,-99.99,,2013-03-17 06:22:00,
2013-03-17 02:32:00,29.0,27.0,-100.00,NW,325,2.0,4.0,93,0.00,,,-99.99,,2013-03-17 06:32:00,
2013-03-17 02:42:00,29.0,27.0,-100.00,NW,315,2.0,4.0,93,0.00,,,-99.99,,2013-03-17 06:42:00,
2013-03-17 02:52:00,29.0,27.0,-100.00,NW,310,2.0,3.0,93,0.00,,,-99.99,,2013-03-17 06:52:00,
2013-03-17 03:12:00,29.0,27.0,-100.00,NW,310,2.0,2.0,93,0.00,,,-99.99,,2013-03-17 07:12:00,
2013-03-17 03:22:00,29.0,27.0,-100.00,WNW,300,2.0,3.0,93,0.00,,,-99.99,,2013-03-17 07:22:00,
2013-03-17 03:32:00,29.0,28.0,-100.00,WNW,300,1.0,4.0,93,0.00,,,-99.99,,2013-03-17 07:32:00,
2013-03-17 03:42:00,29.0,28.0,-100.00,NW,310,3.0,6.0,93,0.00,,,-99.99,,2013-03-17 07:42:00,
2013-03-17 03:52:00,29.0,28.0,-100.00,NW,310,3.0,5.0,93,0.00,,,-99.99,,2013-03-17 07:52:00,
2013-03-17 04:03:00,29.0,28.0,-100.00,NW,315,3.0,7.0,93,0.00,,,-99.99,,2013-03-17 08:03:00,
2013-03-17 04:13:00,29.0,28.0,-100.00,NW,310,6.0,11.0,93,0.00,,,-99.99,,2013-03-17 08:13:00,
2013-03-17 04:22:00,29.0,28.0,-100.00,NW,315,7.0,10.0,93,0.00,,,-99.99,,2013-03-17 08:22:00,
2013-03-17 04:33:00,29.0,27.0,-100.00,NW,305,6.0,11.0,93,0.00,,,-99.99,,2013-03-17 08:33:00,
2013-03-17 04:42:00,29.0,27.0,-100.00,NW,320,7.0,10.0,93,0.00,,,-99.99,,2013-03-17 08:42:00,
2013-03-17 04:52:00,29.0,27.0,-100.00,NW,315,10.0,14.0,93,0.00,,,-99.99,,2013-03-17 08:52:00,
2013-03-17 05:03:00,28.0,27.0,-100.00,NW,320,6.0,12.0,93,0.00,,,-99.99,,2013-03-17 09:03:00,
2013-03-17 05:12:00,28.0,27.0,-100.00,NW,305,7.0,11.0,93,0.00,,,-99.99,,2013-03-17 09:12:00,
2013-03-17 05:22:00,28.0,26.0,-100.00,NW,325,7.0,14.0,93,0.00,,,-99.99,,2013-03-17 09:22:00,
2013-03-17 05:32:00,28.0,26.0,-100.00,NW,315,7.0,12.0,93,0.00,,,-99.99,,2013-03-17 09:32:00,
2013-03-17 05:43:00,28.0,26.0,-100.00,NW,315,9.0,14.0,92,0.00,,,-99.99,,2013-03-17 09:43:00,
2013-03-17 05:53:00,28.0,26.0,-100.00,NW,320,7.0,12.0,92,0.00,,,-99.99,,2013-03-17 09:53:00,
2013-03-17 06:03:00,28.0,26.0,-100.00,NNW,330,7.0,10.0,92,0.00,,,-99.99,,2013-03-17 10:03:00,
2013-03-17 06:13:00,28.0,26.0,-100.00,North,5,3.0,9.0,92,0.00,,,-99.99,,2013-03-17 10:13:00,
2013-03-17 06:23:00,28.0,26.0,-100.00,NNW,345,2.0,11.0,92,0.00,,,-99.99,,2013-03-17 10:23:00,
2013-03-17 06:33:00,28.0,26.0,-100.00,NW,310,4.0,8.0,92,0.00,,,-99.99,,2013-03-17 10:33:00,
2013-03-17 06:42:00,28.0,26.0,-100.00,NNW,330,2.0,9.0,92,0.00,,,-99.99,,2013-03-17 10:42:00,
2013-03-17 06:52:00,28.0,26.0,-100.00,NNW,335,4.0,9.0,91,0.00,,,-99.99,,2013-03-17 10:52:00,
2013-03-17 07:02:00,28.0,26.0,-100.00,North,350,1.0,6.0,91,0.00,,,-99.99,,2013-03-17 11:02:00,
2013-03-17 07:12:00,28.0,26.0,-100.00,North,0,3.0,6.0,91,0.00,,,-99.99,,2013-03-17 11:12:00,
2013-03-17 07:22:00,28.0,26.0,-100.00,NNW,345,4.0,7.0,91,0.00,,,-99.99,,2013-03-17 11:22:00,
2013-03-17 07:32:00,28.0,26.0,-100.00,NNW,335,3.0,9.0,90,0.00,,,-99.99,,2013-03-17 11:32:00,
2013-03-17 07:42:00,28.0,26.0,-100.00,NNW,340,3.0,7.0,90,0.00,,,-99.99,,2013-03-17 11:42:00,
2013-03-17 07:52:00,28.0,26.0,-100.00,NW,320,2.0,6.0,90,0.00,,,-99.99,,2013-03-17 11:52:00,
2013-03-17 08:02:00,28.0,25.0,-100.00,North,350,4.0,7.0,90,0.00,,,-99.99,,2013-03-17 12:02:00,
2013-03-17 08:12:00,28.0,25.0,-100.00,NW,320,3.0,9.0,89,0.00,,,-99.99,,2013-03-17 12:12:00,
2013-03-17 08:22:00,28.0,25.0,-100.00,NW,310,6.0,11.0,90,0.00,,,-99.99,,2013-03-17 12:22:00,
2013-03-17 08:33:00,27.0,24.0,-100.00,NW,315,9.0,13.0,90,0.00,,,-99.99,,2013-03-17 12:33:00,
2013-03-17 08:43:00,27.0,24.0,-100.00,NW,310,5.0,12.0,90,0.00,,,-99.99,,2013-03-17 12:43:00,
2013-03-17 08:52:00,27.0,24.0,-100.00,North,350,5.0,9.0,90,0.00,,,-99.99,,2013-03-17 12:52:00,
2013-03-17 09:02:00,26.0,24.0,-100.00,NNW,330,6.0,9.0,89,0.00,,,-99.99,,2013-03-17 13:02:00,
2013-03-17 09:12:00,26.0,24.0,-100.00,NW,325,7.0,11.0,89,0.00,,,-99.99,,2013-03-17 13:12:00,
2013-03-17 09:22:00,26.0,24.0,-100.00,NNW,340,4.0,9.0,89,0.00,,,-99.99,,2013-03-17 13:22:00,
2013-03-17 09:32:00,26.0,23.0,-100.00,NNW,330,4.0,9.0,89,0.00,,,-99.99,,2013-03-17 13:32:00,
2013-03-17 09:42:00,26.0,22.0,-100.00,NNW,340,5.0,9.0,85,0.00,,,-99.99,,2013-03-17 13:42:00,
2013-03-17 09:52:00,26.0,21.0,-100.00,NW,325,5.0,10.0,83,0.00,,,-99.99,,2013-03-17 13:52:00,
2013-03-17 10:02:00,26.0,21.0,-100.00,NW,315,4.0,9.0,83,0.00,,,-99.99,,2013-03-17 14:02:00,
2013-03-17 10:12:00,26.0,21.0,-100.00,NW,320,4.0,11.0,82,0.00,,,-99.99,,2013-03-17 14:12:00,
2013-03-17 10:22:00,26.0,21.0,-100.00,NNW,330,4.0,9.0,80,0.00,,,-99.99,,2013-03-17 14:22:00,
2013-03-17 10:32:00,26.0,20.0,-100.00,NNW,340,5.0,13.0,79,0.00,,,-99.99,,2013-03-17 14:32:00,
2013-03-17 10:42:00,26.0,21.0,-100.00,NNW,340,4.0,11.0,79,0.00,,,-99.99,,2013-03-17 14:42:00,
2013-03-17 10:52:00,26.0,19.0,-100.00,North,355,6.0,12.0,75,0.00,,,-99.99,,2013-03-17 14:52:00,
2013-03-17 11:02:00,26.0,20.0,-100.00,NW,325,4.0,14.0,76,0.00,,,-99.99,,2013-03-17 15:02:00,
2013-03-17 11:12:00,26.0,20.0,-100.00,NNW,345,4.0,9.0,76,0.00,,,-99.99,,2013-03-17 15:12:00,
2013-03-17 11:23:00,26.0,20.0,-100.00,North,0,3.0,9.0,76,0.00,,,-99.99,,2013-03-17 15:23:00,
2013-03-17 11:33:00,26.0,20.0,-100.00,North,0,6.0,9.0,75,0.00,,,-99.99,,2013-03-17 15:33:00,
2013-03-17 11:43:00,26.0,20.0,-100.00,NNW,335,3.0,8.0,76,0.00,,,-99.99,,2013-03-17 15:43:00,
2013-03-17 11:52:00,27.0,20.0,-100.00,NE,35,4.0,8.0,75,0.00,,,-99.99,,2013-03-17 15:52:00,
2013-03-17 12:03:00,27.0,21.0,-100.00,North,0,2.0,7.0,76,0.00,,,-99.99,,2013-03-17 16:03:00,
2013-03-17 12:12:00,27.0,20.0,-100.00,NNW,335,5.0,9.0,76,0.00,,,-99.99,,2013-03-17 16:12:00,
2013-03-17 12:23:00,27.0,21.0,-100.00,North,10,4.0,11.0,77,0.00,,,-99.99,,2013-03-17 16:23:00,
2013-03-17 12:33:00,27.0,21.0,-100.00,North,350,4.0,9.0,76,0.00,,,-99.99,,2013-03-17 16:33:00,
2013-03-17 12:42:00,28.0,22.0,-100.00,North,5,2.0,11.0,77,0.00,,,-99.99,,2013-03-17 16:42:00,
2013-03-17 12:52:00,28.0,22.0,-100.00,North,350,4.0,9.0,78,0.00,,,-99.99,,2013-03-17 16:52:00,
2013-03-17 13:02:00,28.0,22.0,-100.00,NNE,30,6.0,11.0,77,0.00,,,-99.99,,2013-03-17 17:02:00,
2013-03-17 13:12:00,29.0,22.0,-100.00,North,10,4.0,9.0,77,0.00,,,-99.99,,2013-03-17 17:12:00,
2013-03-17 13:22:00,29.0,23.0,-100.00,NNE,15,6.0,12.0,78,0.00,,,-99.99,,2013-03-17 17:22:00,
2013-03-17 13:33:00,29.0,23.0,-100.00,North,5,4.0,9.0,78,0.00,,,-99.99,,2013-03-17 17:33:00,
2013-03-17 13:42:00,29.0,23.0,-100.00,NNE,20,6.0,11.0,78,0.00,,,-99.99,,2013-03-17 17:42:00,
2013-03-17 13:52:00,29.0,24.0,-100.00,NE,35,4.0,10.0,79,0.00,,,-99.99,,2013-03-17 17:52:00,
2013-03-17 14:02:00,30.0,25.0,-100.00,NE,50,3.0,11.0,79,0.00,,,-99.99,,2013-03-17 18:02:00,
2013-03-17 14:12:00,31.0,25.0,-100.00,North,355,4.0,11.0,77,0.00,,,-99.99,,2013-03-17 18:12:00,
2013-03-17 14:22:00,31.0,24.0,-100.00,NNE,25,6.0,11.0,74,0.00,,,-99.99,,2013-03-17 18:22:00,
2013-03-17 14:32:00,31.0,25.0,-100.00,NE,50,4.0,10.0,75,0.00,,,-99.99,,2013-03-17 18:32:00,
2013-03-17 14:42:00,31.0,24.0,-100.00,NNE,30,6.0,10.0,74,0.00,,,-99.99,,2013-03-17 18:42:00,
2013-03-17 14:52:00,32.0,24.0,-100.00,NNE,20,6.0,13.0,74,0.00,,,-99.99,,2013-03-17 18:52:00,
2013-03-17 15:02:00,32.0,25.0,-100.00,North,0,3.0,10.0,75,0.00,,,-99.99,,2013-03-17 19:02:00,
2013-03-17 15:12:00,32.0,24.0,-100.00,North,10,4.0,10.0,74,0.00,,,-99.99,,2013-03-17 19:12:00,
2013-03-17 15:22:00,32.0,24.0,-100.00,North,0,4.0,12.0,74,0.00,,,-99.99,,2013-03-17 19:22:00,
2013-03-17 15:33:00,32.0,24.0,-100.00,ENE,65,6.0,10.0,73,0.00,,,-99.99,,2013-03-17 19:33:00,
2013-03-17 15:42:00,32.0,25.0,-100.00,North,10,3.0,11.0,75,0.00,,,-99.99,,2013-03-17 19:42:00,
2013-03-17 15:53:00,31.0,24.0,-100.00,NNE,30,4.0,10.0,74,0.00,,,-99.99,,2013-03-17 19:53:00,
2013-03-17 16:02:00,31.0,24.0,-100.00,NNE,30,6.0,9.0,74,0.00,,,-99.99,,2013-03-17 20:02:00,
2013-03-17 16:12:00,32.0,24.0,-100.00,NNW,345,2.0,10.0,73,0.00,,,-99.99,,2013-03-17 20:12:00,
2013-03-17 16:22:00,32.0,24.0,-100.00,NE,55,7.0,12.0,72,0.00,,,-99.99,,2013-03-17 20:22:00,
2013-03-17 16:33:00,32.0,25.0,-100.00,NNE,15,4.0,10.0,74,0.00,,,-99.99,,2013-03-17 20:33:00,
2013-03-17 16:42:00,31.0,24.0,-100.00,North,0,4.0,12.0,73,0.00,,,-99.99,,2013-03-17 20:42:00,
2013-03-17 16:52:00,32.0,24.0,-100.00,NE,40,6.0,8.0,73,0.00,,,-99.99,,2013-03-17 20:52:00,
2013-03-17 17:03:00,32.0,25.0,-100.00,ENE,60,4.0,12.0,75,0.00,,,-99.99,,2013-03-17 21:03:00,
2013-03-17 17:12:00,31.0,24.0,-100.00,North,0,2.0,9.0,75,0.00,,,-99.99,,2013-03-17 21:12:00,
2013-03-17 17:22:00,31.0,24.0,-100.00,North,0,4.0,10.0,75,0.00,,,-99.99,,2013-03-17 21:22:00,
2013-03-17 17:33:00,31.0,24.0,-100.00,North,10,4.0,14.0,74,0.00,,,-99.99,,2013-03-17 21:33:00,
2013-03-17 17:43:00,31.0,24.0,-100.00,NE,50,5.0,12.0,73,0.00,,,-99.99,,2013-03-17 21:43:00,
2013-03-17 17:52:00,32.0,23.0,-100.00,NE,40,5.0,11.0,71,0.00,,,-99.99,,2013-03-17 21:52:00,
2013-03-17 18:03:00,32.0,24.0,-100.00,ENE,60,6.0,10.0,74,0.00,,,-99.99,,2013-03-17 22:03:00,
2013-03-17 18:12:00,31.0,24.0,-100.00,NNE,20,6.0,12.0,72,0.00,,,-99.99,,2013-03-17 22:12:00,
2013-03-17 18:23:00,32.0,24.0,-100.00,NNE,30,6.0,12.0,72,0.00,,,-99.99,,2013-03-17 22:23:00,
2013-03-17 18:33:00,32.0,24.0,-100.00,NNE,30,6.0,12.0,72,0.00,,,-99.99,,2013-03-17 22:33:00,
2013-03-17 18:42:00,31.0,24.0,-100.00,NE,40,3.0,12.0,73,0.00,,,-99.99,,2013-03-17 22:42:00,
2013-03-17 18:52:00,31.0,24.0,-100.00,ENE,65,6.0,13.0,72,0.00,,,-99.99,,2013-03-17 22:52:00,
2013-03-17 19:03:00,31.0,24.0,-100.00,NE,45,6.0,12.0,72,0.00,,,-99.99,,2013-03-17 23:03:00,
2013-03-17 19:12:00,31.0,24.0,-100.00,NE,35,5.0,11.0,73,0.00,,,-99.99,,2013-03-17 23:12:00,
2013-03-17 19:22:00,31.0,24.0,-100.00,NNE,30,4.0,11.0,73,0.00,,,-99.99,,2013-03-17 23:22:00,
2013-03-17 19:33:00,31.0,24.0,-100.00,NNE,30,4.0,11.0,73,0.00,,,-99.99,,2013-03-17 23:33:00,
2013-03-17 19:42:00,31.0,24.0,-100.00,North,5,1.0,12.0,75,0.00,,,-99.99,,2013-03-17 23:42:00,
2013-03-17 19:52:00,30.0,24.0,-100.00,NE,40,2.0,12.0,76,0.00,,,-99.99,,2013-03-17 23:52:00,
2013-03-17 20:03:00,30.0,24.0,-100.00,North,0,4.0,9.0,76,0.00,,,-99.99,,2013-03-18 00:03:00,
2013-03-17 20:13:00,30.0,24.0,-100.00,NNE,25,4.0,12.0,77,0.00,,,-99.99,,2013-03-18 00:13:00,
2013-03-17 20:22:00,30.0,24.0,-100.00,North,0,2.0,9.0,77,0.00,,,-99.99,,2013-03-18 00:22:00,
2013-03-17 20:33:00,29.0,24.0,-100.00,North,10,1.0,9.0,78,0.00,,,-99.99,,2013-03-18 00:33:00,
2013-03-17 20:42:00,30.0,24.0,-100.00,North,350,2.0,12.0,77,0.00,,,-99.99,,2013-03-18 00:42:00,
2013-03-17 20:52:00,29.0,24.0,-100.00,NE,35,2.0,8.0,78,0.00,,,-99.99,,2013-03-18 00:52:00,
2013-03-17 21:02:00,30.0,24.0,-100.00,NNE,25,4.0,9.0,79,0.00,,,-99.99,,2013-03-18 01:02:00,
2013-03-17 21:12:00,30.0,24.0,-100.00,NNE,20,5.0,9.0,79,0.00,,,-99.99,,2013-03-18 01:12:00,
2013-03-17 21:22:00,29.0,24.0,-100.00,North,0,4.0,9.0,79,0.00,,,-99.99,,2013-03-18 01:22:00,
2013-03-17 21:32:00,29.0,24.0,-100.00,NNE,20,4.0,10.0,79,0.00,,,-99.99,,2013-03-18 01:32:00,
2013-03-17 21:42:00,29.0,24.0,-100.00,NE,50,6.0,11.0,79,0.00,,,-99.99,,2013-03-18 01:42:00,
2013-03-17 21:52:00,29.0,24.0,-100.00,NE,40,4.0,12.0,79,0.00,,,-99.99,,2013-03-18 01:52:00,
2013-03-17 22:02:00,29.0,24.0,-100.00,NNE,20,2.0,9.0,79,0.00,,,-99.99,,2013-03-18 02:02:00,
2013-03-17 22:12:00,29.0,24.0,-100.00,NE,55,6.0,11.0,79,0.00,,,-99.99,,2013-03-18 02:12:00,
2013-03-17 22:22:00,29.0,24.0,-100.00,NNE,30,6.0,13.0,79,0.00,,,-99.99,,2013-03-18 02:22:00,
2013-03-17 22:32:00,29.0,24.0,-100.00,NNE,30,5.0,14.0,80,0.00,,,-99.99,,2013-03-18 02:32:00,
2013-03-17 22:42:00,29.0,24.0,-100.00,NNE,25,6.0,12.0,80,0.00,,,-99.99,,2013-03-18 02:42:00,
2013-03-17 22:52:00,29.0,24.0,-100.00,NE,55,6.0,11.0,80,0.00,,,-99.99,,2013-03-18 02:52:00,
2013-03-17 23:03:00,29.0,24.0,-100.00,NE,55,6.0,11.0,80,0.00,,,-99.99,,2013-03-18 03:03:00,
2013-03-17 23:11:00,29.0,24.0,-100.00,NE,40,4.0,12.0,80,0.00,,,-99.99,,2013-03-18 03:11:00,
2013-03-17 23:22:00,29.0,24.0,-100.00,North,0,4.0,13.0,81,0.00,,,-99.99,,2013-03-18 03:22:00,
2013-03-17 23:33:00,29.0,24.0,-100.00,NE,40,5.0,13.0,82,0.00,,,-99.99,,2013-03-18 03:33:00,
2013-03-17 23:42:00,29.0,24.0,-100.00,ENE,65,8.0,16.0,81,0.00,,,-99.99,,2013-03-18 03:42:00,
2013-03-17 23:53:00,29.0,24.0,-100.00,North,10,6.0,14.0,81,0.00,,,-99.99,,2013-03-18 03:53:00,